User: anonymous   Login
Location: Mentone
(34.5413°N, 85.5351°W)
Time: 10:01:10
(UTC-05:00)
Language:

Centaur AC-72 - Orbit

View from above orbital plane
View from above orbital plane
View from above satellite
View from above satellite

Ground track
Ground track

The orbit data is extracted from the following two-line orbital elements,

1 21907U 92013B   16177.29077311 -.00000085 +00000-0 +00000-0 0  9990
2 21907 019.6417 023.1083 6952694 304.3122 318.0840 02.25604128200154
Epoch (UTC): 25 June 2016 06:58:42
Eccentricity: 0.6952694
inclination: 19.6417°
perigee height: 1105 km
apogee height: 35252 km
right ascension of ascending node: 23.1083°
argument of perigee: 304.3122°
revolutions per day: 2.25604128
mean anomaly at epoch: 318.0840°
orbit number at epoch: 20015

The dashed part of the orbit path shows where the satellite is in the earth's shadow,  

DLR